Tracking 25701 objects as of 3-Jul-2022
HD Live streaming from Space Station
objects crossing your sky now

FENGYUN 1C DEB

Track FENGYUN 1C DEB now!
10-day predictions


NORAD ID: 31823
Int'l Code: 1999-025CHM
Perigee: 729.3 km
Apogee: 803.5 km
Inclination: 99.5 °
Period: 100.0 minutes
Semi major axis: 7137 km
RCS: 0.0046 m2 (small)
Launch date: May 10, 1999
Source: People's Republic of China (PRC)
Launch site: Taiyaun Space Center, China (TSC)

Note: This is SATELLITE DEBRIS
aabbcc
Your satellite tracking list
Your tracking list is empty




NASA's NSSDC Master Catalog

Two Line Element Set (TLE):
1 31823U 99025CHM 22183.50899187  .00001186  00000-0  38930-3 0  9997
2 31823  99.5211  89.3930 0051938 338.7621  21.1408 14.39769277789986
Source of the keplerian elements: AFSPC